BEIDOU-3 G3 (PRN 143)

Last updated on Sat Sep 05 2026 00:03:32 GMT+0000 (Coordinated Universal Time)

1 45807U 20040A 26247.61777343 -.00000361 00000+0 00000+0 0 9998 2 45807 2.6358 67.4129 0002528 284.8638 324.4119 1.00273834 22865
UTC large
Height (km)
Speed (km/s)
/
Latitude / Longitude
Inclination (degrees)
Orbital Period (minutes)
Azimuth
Elevation
Range (km)
Doppler Factor

Next 0 passes for location: London (51.5072 / 0.1276)

No passes found over London.
BEIDOU-3 G3 (PRN 143)